Lake Catherine Weather Center

Moon Phase Calendar



Lake Catherine Water Level
Online Cameras

 


      

Current Conditions in Hot Springs
4/22/2024 12:41:01 PM

64°F
Feels Like 61
Clear
Humidity
30%
Pressure
30.27"
Wind
4.6 mph (S)
Dew Point
32°F
UV Index
7/10 (High)
Visibility
6 mi

Hourly Forecast

Date & Time Mon, Apr 22
12:00 PM
Mon, Apr 22
1:00 PM
Mon, Apr 22
2:00 PM
Mon, Apr 22
3:00 PM
Mon, Apr 22
4:00 PM
Mon, Apr 22
5:00 PM
Mon, Apr 22
6:00 PM
Mon, Apr 22
7:00 PM
Mon, Apr 22
8:00 PM
Mon, Apr 22
9:00 PM
Mon, Apr 22
10:00 PM
Mon, Apr 22
11:00 PM
Tue, Apr 23
12:00 AM
Tue, Apr 23
1:00 AM
Tue, Apr 23
2:00 AM
Tue, Apr 23
3:00 AM
Tue, Apr 23
4:00 AM
Tue, Apr 23
5:00 AM
Tue, Apr 23
6:00 AM
Tue, Apr 23
7:00 AM
Tue, Apr 23
8:00 AM
Tue, Apr 23
9:00 AM
Tue, Apr 23
10:00 AM
Tue, Apr 23
11:00 AM
Tue, Apr 23
12:00 PM
Tue, Apr 23
1:00 PM
Tue, Apr 23
2:00 PM
Tue, Apr 23
3:00 PM
Tue, Apr 23
4:00 PM
Tue, Apr 23
5:00 PM
Tue, Apr 23
6:00 PM
Tue, Apr 23
7:00 PM
Tue, Apr 23
8:00 PM
Tue, Apr 23
9:00 PM
Tue, Apr 23
10:00 PM
Tue, Apr 23
11:00 PM
Wed, Apr 24
12:00 AM
Wed, Apr 24
1:00 AM
Wed, Apr 24
2:00 AM
Wed, Apr 24
3:00 AM
Wed, Apr 24
4:00 AM
Wed, Apr 24
5:00 AM
Wed, Apr 24
6:00 AM
Wed, Apr 24
7:00 AM
Wed, Apr 24
8:00 AM
Wed, Apr 24
9:00 AM
Wed, Apr 24
10:00 AM
Wed, Apr 24
11:00 AM
Condition
Clear

Clear

Clear

Clear

Clear

Clear

Clear

Clear

Clear

Clear

Clear

Clear

Clear

Clear

Clear

Clear

Clear

Clear

Clear

Clear

Clear

Clear

Clear

Clear

Clear

Clear

Clear

Clear

Clear

Clear

Clear

Clear

Clouds

Clouds

Clouds

Clouds

Clouds

Clouds

Clouds

Clouds

Clouds

Clouds

Clouds

Clouds

Clouds

Clouds

Clouds

Clouds
Temperature 64°F64°F65°F66°F67°F67°F67°F61°F55°F52°F50°F49°F48°F47°F46°F46°F45°F45°F45°F45°F51°F57°F63°F67°F71°F73°F75°F75°F76°F75°F73°F69°F63°F63°F64°F64°F64°F63°F63°F63°F63°F63°F63°F62°F64°F64°F63°F65°F
Feels Like 61°F61°F62°F63°F65°F65°F65°F60°F53°F50°F50°F49°F47°F46°F45°F44°F44°F43°F43°F44°F50°F56°F61°F66°F70°F72°F74°F75°F75°F74°F73°F69°F62°F63°F64°F64°F64°F63°F63°F63°F63°F63°F63°F62°F64°F64°F64°F65°F
Cloudiness 0%0%0%0%0%0%0%0%0%0%0%1%2%3%6%6%6%4%4%3%0%2%1%1%2%1%0%2%4%2%3%4%23%54%69%77%82%85%100%100%100%100%100%100%99%100%100%100%
Visibility 6 mi6 mi6 mi6 mi6 mi6 mi6 mi6 mi6 mi6 mi6 mi6 mi6 mi6 mi6 mi6 mi6 mi6 mi6 mi6 mi6 mi6 mi6 mi6 mi6 mi6 mi6 mi6 mi6 mi6 mi6 mi6 mi6 mi6 mi6 mi6 mi6 mi6 mi6 mi6 mi6 mi6 mi6 mi6 mi6 mi6 mi6 mi6 mi
Precipitation 0%0%0%0%0%0%0%0%0%0%0%0%0%0%0%0%0%0%0%0%0%0%0%0%0%0%0%0%0%0%0%0%0%0%0%0%0%0%0%0%0%0%0%0%0%0%0%0%
Humidity 31%30%29%29%30%32%42%58%66%73%79%82%86%91%93%94%95%95%96%94%78%65%57%52%49%46%44%44%46%49%55%64%78%76%76%77%80%81%83%83%84%85%86%90%86%88%90%83%
Dew Point 33°F32°F32°F33°F34°F36°F42°F46°F43°F43°F43°F43°F43°F43°F44°F43°F43°F43°F43°F43°F44°F45°F47°F49°F50°F50°F51°F52°F53°F54°F56°F56°F55°F55°F56°F56°F57°F57°F57°F57°F58°F58°F58°F58°F59°F60°F60°F60°F
Pressure 30.27"30.27"30.27"30.24"30.21"30.15"30.09"30.09"30.12"30.12"30.15"30.12"30.12"30.15"30.12"30.12"30.12"30.09"30.09"30.12"30.12"30.09"30.09"30.09"30.06"30.03"30"30"29.97"29.97"29.97"30"30.03"30.03"30.06"30.06"30.03"30.03"30.06"30.06"30.06"30.06"30.09"30.12"30.15"30.15"30.15"30.15"
Wind Speed 5 mph5.3 mph5.5 mph5.9 mph6.3 mph6.9 mph6.6 mph4.8 mph4.4 mph3.8 mph2.6 mph3.1 mph3.3 mph3.1 mph3.1 mph3.5 mph3.4 mph3.8 mph3.8 mph4 mph7.1 mph9.2 mph10.6 mph12 mph12.8 mph13.4 mph13 mph12.6 mph11.6 mph10.9 mph8.7 mph6.6 mph4 mph3.9 mph3.4 mph4 mph4 mph3.2 mph2.8 mph2.7 mph2.4 mph0.9 mph0.9 mph1.1 mph2.5 mph4.8 mph6.4 mph7.4 mph
Wind
Direction
181°
S
186°
S
191°
S
191°
S
192°
SSW
192°
SSW
186°
S
178°
S
179°
S
205°
SSW
201°
SSW
175°
S
173°
S
204°
SSW
197°
SSW
191°
S
198°
SSW
195°
SSW
195°
SSW
193°
SSW
200°
SSW
207°
SSW
210°
SSW
213°
SSW
209°
SSW
208°
SSW
214°
SW
218°
SW
222°
SW
218°
SW
214°
SW
214°
SW
213°
SSW
210°
SSW
216°
SW
188°
S
192°
SSW
230°
SW
265°
W
272°
W
263°
W
266°
W
42°
NE
38°
NE
41°
NE
47°
NE
60°
ENE
72°
ENE

Daily Forecast

Date High Low Precip. Humidity
Today
Apr 22

Clear
67 °F
41 °F
0%
30%
Tuesday
Apr 23

Clear
76 °F
45 °F
0%
46%
Wednesday
Apr 24

Rain
70 °F
59 °F
100%
75%
Thursday
Apr 25

Clouds
79 °F
56 °F
80%
72%
Friday
Apr 26

Rain
76 °F
66 °F
100%
76%
Saturday
Apr 27

Rain
78 °F
68 °F
100%
76%
Sunday
Apr 28

Rain
75 °F
67 °F
40%
84%
Monday
Apr 29

Rain
74 °F
64 °F
100%
92%
Tuesday
Apr 30

Clear
83 °F
58 °F
80%
38%
Wednesday
May 1

Rain
81 °F
59 °F
100%
63%
Thursday
May 2

Rain
83 °F
68 °F
100%
55%
Friday
May 3

Rain
80 °F
67 °F
100%
62%
Saturday
May 4

Rain
76 °F
63 °F
100%
77%
Sunday
May 5

Clear
72 °F
52 °F
0%
37%
Monday
May 6

Clear
75 °F
49 °F
0%
38%
Tuesday
May 7

Clouds
81 °F
52 °F
0%
37%

Temperature 8-14 Day Outlook



Precipitation 8-14 Day Outlook




Quick Links
Lake Catherine News
Lake Catherine Photos
Lake Catherine Videos




About Us
Contact Us
Site Map
Search Site
Advertise With Us
   
Catherine.USLakes.info
THE LAKE CATHERINE WEBSITE

Copyright 2024, Lakes Online
Privacy    |    Legal